Time,TemperatureF,DewpointF,PressureIn,WindDirection,WindDirectionDegrees,WindSpeedMPH,WindSpeedGustMPH,Humidity,HourlyPrecipIn,Conditions,Clouds,dailyrainin,SolarRadiationWatts/m^2,SoftwareType,DateUTC
2013-02-13 00:17:00,31.5,22.9,29.95,SE,144,0.0,0.0,70,0.00,,CLR,0.00,0.00,VWS V14.01,2013-02-13 05:17:00,
2013-02-13 00:22:00,31.2,22.9,29.94,SSE,168,0.0,2.0,71,0.00,,CLR,0.00,0.00,VWS V14.01,2013-02-13 05:22:00,
2013-02-13 00:27:00,30.8,22.5,29.94,South,169,0.0,0.0,71,0.00,,CLR,0.00,0.00,VWS V14.01,2013-02-13 05:27:00,
2013-02-13 00:32:00,30.5,22.2,29.94,South,169,0.0,0.0,71,0.00,,CLR,0.00,0.00,VWS V14.01,2013-02-13 05:32:00,
2013-02-13 00:37:00,30.3,22.0,29.94,South,179,0.0,0.0,71,0.00,,CLR,0.00,0.00,VWS V14.01,2013-02-13 05:37:00,
2013-02-13 00:42:00,30.0,22.1,29.94,South,179,0.0,0.0,72,0.00,,CLR,0.00,0.00,VWS V14.01,2013-02-13 05:42:00,
2013-02-13 00:48:00,30.0,22.1,29.94,South,179,0.0,0.0,72,0.00,,CLR,0.00,0.00,VWS V14.01,2013-02-13 05:48:00,
2013-02-13 00:53:00,29.9,22.0,29.93,South,179,0.0,0.0,72,0.00,,CLR,0.00,0.00,VWS V14.01,2013-02-13 05:53:00,
2013-02-13 00:58:00,29.7,22.1,29.93,South,179,0.0,0.0,73,0.00,,CLR,0.00,0.00,VWS V14.01,2013-02-13 05:58:00,
2013-02-13 01:03:00,29.4,21.5,29.93,South,179,0.0,0.0,72,0.00,,CLR,0.00,0.00,VWS V14.01,2013-02-13 06:03:00,
2013-02-13 01:08:00,29.1,21.5,29.93,South,179,0.0,0.0,73,0.00,,CLR,0.00,0.00,VWS V14.01,2013-02-13 06:08:00,
2013-02-13 01:13:00,29.0,21.4,29.93,South,179,0.0,0.0,73,0.00,,CLR,0.00,0.00,VWS V14.01,2013-02-13 06:13:00,
2013-02-13 01:18:00,29.0,21.8,29.93,South,179,0.0,0.0,74,0.00,,CLR,0.00,0.00,VWS V14.01,2013-02-13 06:18:00,
2013-02-13 01:23:00,28.8,21.9,29.92,South,179,0.0,2.0,75,0.00,,CLR,0.00,0.00,VWS V14.01,2013-02-13 06:23:00,
2013-02-13 01:28:00,28.8,22.2,29.92,South,178,0.0,0.0,76,0.00,,CLR,0.00,0.00,VWS V14.01,2013-02-13 06:28:00,
2013-02-13 01:33:00,28.5,21.9,29.92,South,178,1.0,2.0,76,0.00,,CLR,0.00,0.00,VWS V14.01,2013-02-13 06:33:00,
2013-02-13 01:38:00,28.5,21.9,29.92,South,178,0.0,0.0,76,0.00,,CLR,0.00,0.00,VWS V14.01,2013-02-13 06:38:00,
2013-02-13 01:44:00,28.5,21.6,29.92,South,178,0.0,0.0,75,0.00,,CLR,0.00,0.00,VWS V14.01,2013-02-13 06:44:00,
2013-02-13 01:49:00,28.1,21.2,29.92,WSW,258,0.0,0.0,75,0.00,,CLR,0.00,0.00,VWS V14.01,2013-02-13 06:49:00,
2013-02-13 01:54:00,28.1,21.2,29.91,WSW,258,0.0,0.0,75,0.00,,CLR,0.00,0.00,VWS V14.01,2013-02-13 06:54:00,
2013-02-13 01:59:00,28.0,21.1,29.91,WSW,258,0.0,0.0,75,0.00,,CLR,0.00,0.00,VWS V14.01,2013-02-13 06:59:00,
2013-02-13 02:04:00,27.7,21.1,29.91,WSW,258,0.0,0.0,76,0.00,,CLR,0.00,0.00,VWS V14.01,2013-02-13 07:04:00,
2013-02-13 02:09:00,27.5,20.9,29.91,WSW,258,0.0,0.0,76,0.00,,CLR,0.00,0.00,VWS V14.01,2013-02-13 07:09:00,
2013-02-13 02:14:00,27.5,21.2,29.91,WSW,258,0.0,0.0,77,0.00,,CLR,0.00,0.00,VWS V14.01,2013-02-13 07:14:00,
2013-02-13 02:19:00,27.4,21.1,29.91,WSW,258,0.0,0.0,77,0.00,,CLR,0.00,0.00,VWS V14.01,2013-02-13 07:19:00,
2013-02-13 02:24:00,27.5,21.5,29.91,WSW,258,0.0,0.0,78,0.00,,CLR,0.00,0.00,VWS V14.01,2013-02-13 07:24:00,
2013-02-13 02:29:00,27.5,21.9,29.91,WSW,258,0.0,0.0,79,0.00,,CLR,0.00,0.00,VWS V14.01,2013-02-13 07:29:00,
2013-02-13 02:34:00,27.7,22.0,29.90,WSW,258,0.0,0.0,79,0.00,,CLR,0.00,0.00,VWS V14.01,2013-02-13 07:34:00,
2013-02-13 02:40:00,27.4,21.8,29.90,WSW,258,0.0,0.0,79,0.00,,CLR,0.00,0.00,VWS V14.01,2013-02-13 07:40:00,
2013-02-13 02:45:00,27.1,21.2,29.90,WSW,258,0.0,0.0,78,0.00,,CLR,0.00,0.00,VWS V14.01,2013-02-13 07:45:00,
2013-02-13 02:50:00,27.1,21.2,29.89,WSW,253,0.0,0.0,78,0.00,,CLR,0.00,0.00,VWS V14.01,2013-02-13 07:50:00,
2013-02-13 02:55:00,26.9,21.0,29.89,WSW,253,0.0,0.0,78,0.00,,CLR,0.00,0.00,VWS V14.01,2013-02-13 07:55:00,
2013-02-13 03:00:00,26.8,20.9,29.89,WSW,253,0.0,0.0,78,0.00,,CLR,0.00,0.00,VWS V14.01,2013-02-13 08:00:00,
2013-02-13 03:05:00,26.8,20.9,29.89,WSW,253,0.0,0.0,78,0.00,,CLR,0.00,0.00,VWS V14.01,2013-02-13 08:05:00,
2013-02-13 03:10:00,26.9,21.3,29.89,WSW,253,0.0,0.0,79,0.00,,CLR,0.00,0.00,VWS V14.01,2013-02-13 08:10:00,
2013-02-13 03:15:00,27.1,21.5,29.89,WSW,253,0.0,0.0,79,0.00,,CLR,0.00,0.00,VWS V14.01,2013-02-13 08:15:00,
2013-02-13 03:21:00,27.1,21.5,29.89,WSW,253,0.0,0.0,79,0.00,,CLR,0.00,0.00,VWS V14.01,2013-02-13 08:21:00,
2013-02-13 03:26:00,26.9,21.3,29.89,WSW,253,0.0,0.0,79,0.00,,CLR,0.00,0.00,VWS V14.01,2013-02-13 08:26:00,
2013-02-13 03:34:00,26.8,21.2,29.89,WSW,253,0.0,0.0,79,0.00,,CLR,0.00,0.00,VWS V14.01,2013-02-13 08:34:00,
2013-02-13 03:39:00,26.5,20.9,29.88,WSW,253,0.0,0.0,79,0.00,,CLR,0.00,0.00,VWS V14.01,2013-02-13 08:39:00,
2013-02-13 03:44:00,26.3,20.7,29.88,WSW,253,0.0,0.0,79,0.00,,CLR,0.00,0.00,VWS V14.01,2013-02-13 08:44:00,
2013-02-13 03:49:00,26.3,20.7,29.88,WSW,253,0.0,0.0,79,0.00,,CLR,0.00,0.00,VWS V14.01,2013-02-13 08:49:00,
2013-02-13 03:54:00,26.2,20.9,29.88,WSW,253,0.0,0.0,80,0.00,,CLR,0.00,0.00,VWS V14.01,2013-02-13 08:54:00,
2013-02-13 03:59:00,26.2,20.9,29.88,WSW,253,0.0,0.0,80,0.00,,CLR,0.00,0.00,VWS V14.01,2013-02-13 08:59:00,
2013-02-13 04:05:00,26.2,21.2,29.88,WSW,253,0.0,0.0,81,0.00,,CLR,0.00,0.00,VWS V14.01,2013-02-13 09:05:00,
2013-02-13 04:10:00,26.3,21.3,29.88,WSW,253,0.0,0.0,81,0.00,,CLR,0.00,0.00,VWS V14.01,2013-02-13 09:10:00,
2013-02-13 04:15:00,26.3,21.3,29.88,WSW,253,0.0,0.0,81,0.00,,CLR,0.00,0.00,VWS V14.01,2013-02-13 09:15:00,
2013-02-13 04:20:00,26.3,21.3,29.89,WSW,253,0.0,0.0,81,0.00,,CLR,0.00,0.00,VWS V14.01,2013-02-13 09:20:00,
2013-02-13 04:25:00,26.3,21.6,29.89,WSW,253,0.0,0.0,82,0.00,,CLR,0.00,0.00,VWS V14.01,2013-02-13 09:25:00,
2013-02-13 04:30:00,26.5,21.8,29.89,WSW,253,0.0,0.0,82,0.00,,CLR,0.00,0.00,VWS V14.01,2013-02-13 09:30:00,
2013-02-13 04:35:00,26.5,21.8,29.88,WSW,253,0.0,0.0,82,0.00,,CLR,0.00,0.00,VWS V14.01,2013-02-13 09:35:00,
2013-02-13 04:40:00,26.5,21.8,29.88,WSW,253,0.0,0.0,82,0.00,,CLR,0.00,0.00,VWS V14.01,2013-02-13 09:40:00,
2013-02-13 04:45:00,26.5,22.0,29.88,WSW,253,0.0,0.0,83,0.00,,CLR,0.00,0.00,VWS V14.01,2013-02-13 09:45:00,
2013-02-13 04:50:00,26.3,21.9,29.89,WSW,253,0.0,0.0,83,0.00,,CLR,0.00,0.00,VWS V14.01,2013-02-13 09:50:00,
2013-02-13 04:55:00,26.3,21.9,29.89,WSW,253,0.0,0.0,83,0.00,,CLR,0.00,0.00,VWS V14.01,2013-02-13 09:55:00,
2013-02-13 05:00:00,26.5,22.0,29.89,WSW,253,0.0,0.0,83,0.00,,CLR,0.00,0.00,VWS V14.01,2013-02-13 10:00:00,
2013-02-13 05:05:00,26.5,22.0,29.88,WSW,253,0.0,0.0,83,0.00,,CLR,0.00,0.00,VWS V14.01,2013-02-13 10:05:00,
2013-02-13 05:11:00,26.5,22.0,29.88,WSW,253,0.0,0.0,83,0.00,,CLR,0.00,0.00,VWS V14.01,2013-02-13 10:11:00,
2013-02-13 05:16:00,26.5,21.8,29.88,WSW,253,0.0,0.0,82,0.00,,CLR,0.00,0.00,VWS V14.01,2013-02-13 10:16:00,
2013-02-13 05:21:00,26.5,21.8,29.88,WSW,253,0.0,0.0,82,0.00,,CLR,0.00,0.00,VWS V14.01,2013-02-13 10:21:00,
2013-02-13 05:26:00,26.5,21.8,29.88,WSW,253,0.0,0.0,82,0.00,,CLR,0.00,0.00,VWS V14.01,2013-02-13 10:26:00,
2013-02-13 05:31:00,26.5,21.8,29.88,WSW,253,0.0,0.0,82,0.00,,CLR,0.00,0.00,VWS V14.01,2013-02-13 10:31:00,
2013-02-13 05:36:00,26.3,21.6,29.88,WSW,253,0.0,0.0,82,0.00,,CLR,0.00,0.00,VWS V14.01,2013-02-13 10:36:00,
2013-02-13 05:41:00,26.3,21.6,29.88,WSW,253,0.0,0.0,82,0.00,,CLR,0.00,0.00,VWS V14.01,2013-02-13 10:41:00,
2013-02-13 05:46:00,26.2,21.8,29.88,WSW,253,0.0,0.0,83,0.00,,CLR,0.00,0.00,VWS V14.01,2013-02-13 10:46:00,
2013-02-13 05:51:00,26.2,21.8,29.87,WSW,253,0.0,0.0,83,0.00,,CLR,0.00,0.00,VWS V14.01,2013-02-13 10:51:00,
2013-02-13 05:56:00,26.2,21.8,29.87,WSW,253,0.0,0.0,83,0.00,,CLR,0.00,0.00,VWS V14.01,2013-02-13 10:56:00,
2013-02-13 06:01:00,26.2,21.8,29.87,WSW,253,0.0,0.0,83,0.00,,CLR,0.00,0.00,VWS V14.01,2013-02-13 11:01:00,
2013-02-13 06:06:00,26.2,22.0,29.87,WSW,253,0.0,0.0,84,0.00,,CLR,0.00,0.00,VWS V14.01,2013-02-13 11:06:00,
2013-02-13 06:11:00,26.0,21.8,29.87,WSW,253,0.0,0.0,84,0.00,,CLR,0.00,0.00,VWS V14.01,2013-02-13 11:11:00,
2013-02-13 06:17:00,26.0,21.8,29.87,WSW,253,0.0,0.0,84,0.00,,CLR,0.00,0.00,VWS V14.01,2013-02-13 11:17:00,
2013-02-13 06:22:00,26.0,21.8,29.86,WSW,253,0.0,0.0,84,0.00,,CLR,0.00,0.00,VWS V14.01,2013-02-13 11:22:00,
2013-02-13 06:27:00,26.0,21.8,29.86,WSW,253,0.0,0.0,84,0.00,,CLR,0.00,0.00,VWS V14.01,2013-02-13 11:27:00,
2013-02-13 06:32:00,26.0,21.8,29.86,WSW,253,0.0,0.0,84,0.00,,CLR,0.00,0.00,VWS V14.01,2013-02-13 11:32:00,
2013-02-13 06:37:00,26.0,21.8,29.86,WSW,253,0.0,0.0,84,0.00,,CLR,0.00,0.00,VWS V14.01,2013-02-13 11:37:00,
2013-02-13 06:42:00,25.9,21.7,29.86,WSW,253,0.0,0.0,84,0.00,,CLR,0.00,0.00,VWS V14.01,2013-02-13 11:42:00,
2013-02-13 06:47:00,25.9,21.7,29.86,WSW,253,0.0,0.0,84,0.00,,CLR,0.00,0.00,VWS V14.01,2013-02-13 11:47:00,
2013-02-13 06:52:00,25.9,21.7,29.86,WSW,253,0.0,0.0,84,0.00,,CLR,0.00,0.00,VWS V14.01,2013-02-13 11:52:00,
2013-02-13 06:57:00,26.0,22.1,29.86,WSW,253,0.0,0.0,85,0.00,,CLR,0.00,0.00,VWS V14.01,2013-02-13 11:57:00,
2013-02-13 07:02:00,26.0,22.1,29.86,WSW,253,0.0,0.0,85,0.00,,CLR,0.00,0.00,VWS V14.01,2013-02-13 12:02:00,
2013-02-13 07:07:00,26.0,22.1,29.85,WSW,253,0.0,0.0,85,0.00,,CLR,0.00,0.00,VWS V14.01,2013-02-13 12:07:00,
2013-02-13 07:12:00,26.2,22.3,29.85,WSW,253,0.0,0.0,85,0.00,,CLR,0.00,5.00,VWS V14.01,2013-02-13 12:12:00,
2013-02-13 07:17:00,26.2,22.3,29.85,WSW,253,0.0,0.0,85,0.00,,CLR,0.00,7.00,VWS V14.01,2013-02-13 12:17:00,
2013-02-13 07:23:00,26.3,22.4,29.86,WSW,253,0.0,0.0,85,0.00,,CLR,0.00,11.00,VWS V14.01,2013-02-13 12:23:00,
2013-02-13 07:28:00,26.5,22.6,29.86,WSW,253,0.0,0.0,85,0.00,,CLR,0.00,19.00,VWS V14.01,2013-02-13 12:28:00,
2013-02-13 07:33:00,26.5,22.6,29.86,WSW,253,2.0,2.0,85,0.00,,CLR,0.00,19.00,VWS V14.01,2013-02-13 12:33:00,
2013-02-13 07:38:00,26.6,23.0,29.86,WSW,253,0.0,0.0,86,0.00,,CLR,0.00,23.00,VWS V14.01,2013-02-13 12:38:00,
2013-02-13 07:43:00,26.9,23.3,29.86,WSW,253,0.0,0.0,86,0.00,,CLR,0.00,28.00,VWS V14.01,2013-02-13 12:43:00,
2013-02-13 07:48:00,27.1,23.5,29.86,WSW,253,0.0,0.0,86,0.00,,CLR,0.00,33.00,VWS V14.01,2013-02-13 12:48:00,
2013-02-13 07:53:00,27.4,23.8,29.86,WSW,253,0.0,0.0,86,0.00,,CLR,0.00,39.00,VWS V14.01,2013-02-13 12:53:00,
2013-02-13 07:58:00,27.5,23.9,29.86,WSW,253,0.0,0.0,86,0.00,,CLR,0.00,44.00,VWS V14.01,2013-02-13 12:58:00,
2013-02-13 08:03:00,27.7,23.8,29.86,WSW,253,0.0,0.0,85,0.00,,CLR,0.00,48.00,VWS V14.01,2013-02-13 13:03:00,
2013-02-13 08:08:00,27.8,23.9,29.86,WNW,296,0.0,2.0,85,0.00,,CLR,0.00,53.00,VWS V14.01,2013-02-13 13:08:00,
2013-02-13 08:13:00,28.1,24.2,29.86,WNW,296,0.0,2.0,85,0.00,,CLR,0.00,60.00,VWS V14.01,2013-02-13 13:13:00,
2013-02-13 08:18:00,28.3,24.1,29.86,WNW,296,0.0,0.0,84,0.00,,CLR,0.00,62.00,VWS V14.01,2013-02-13 13:18:00,
2013-02-13 08:24:00,28.4,24.2,29.86,WNW,296,0.0,0.0,84,0.00,,CLR,0.00,65.00,VWS V14.01,2013-02-13 13:24:00,
2013-02-13 08:29:00,28.7,24.5,29.86,WNW,296,0.0,0.0,84,0.00,,CLR,0.00,79.00,VWS V14.01,2013-02-13 13:29:00,
2013-02-13 08:34:00,28.8,24.6,29.86,WNW,296,0.0,0.0,84,0.00,,CLR,0.00,84.00,VWS V14.01,2013-02-13 13:34:00,
2013-02-13 08:39:00,29.1,24.6,29.85,WNW,296,0.0,0.0,83,0.00,,CLR,0.00,83.00,VWS V14.01,2013-02-13 13:39:00,
2013-02-13 08:44:00,29.3,24.8,29.85,WNW,296,0.0,0.0,83,0.00,,CLR,0.00,88.00,VWS V14.01,2013-02-13 13:44:00,
2013-02-13 08:49:00,29.6,24.8,29.85,NW,309,0.0,0.0,82,0.00,,CLR,0.00,77.00,VWS V14.01,2013-02-13 13:49:00,
2013-02-13 08:54:00,29.6,24.8,29.84,NW,309,0.0,0.0,82,0.00,,CLR,0.00,86.00,VWS V14.01,2013-02-13 13:54:00,
2013-02-13 08:59:00,29.7,24.9,29.84,NW,311,0.0,0.0,82,0.00,,CLR,0.00,104.00,VWS V14.01,2013-02-13 13:59:00,
2013-02-13 09:04:00,29.9,24.8,29.84,NW,311,0.0,0.0,81,0.00,,CLR,0.00,148.00,VWS V14.01,2013-02-13 14:04:00,
2013-02-13 09:09:00,30.2,25.1,29.85,SE,128,2.0,3.0,81,0.00,,CLR,0.00,216.00,VWS V14.01,2013-02-13 14:09:00,
2013-02-13 09:14:00,30.6,25.5,29.85,SE,133,0.0,3.0,81,0.00,,CLR,0.00,137.00,VWS V14.01,2013-02-13 14:14:00,
2013-02-13 09:19:00,31.1,25.7,29.83,SE,133,0.0,0.0,80,0.00,,CLR,0.00,162.00,VWS V14.01,2013-02-13 14:19:00,
2013-02-13 09:24:00,31.5,25.8,29.83,SW,222,0.0,2.0,79,0.00,,CLR,0.00,160.00,VWS V14.01,2013-02-13 14:24:00,
2013-02-13 09:29:00,32.1,25.7,29.83,SW,222,0.0,0.0,77,0.00,,CLR,0.00,171.00,VWS V14.01,2013-02-13 14:29:00,
2013-02-13 09:35:00,32.5,25.5,29.83,WSW,240,0.0,0.0,75,0.00,,CLR,0.00,174.00,VWS V14.01,2013-02-13 14:35:00,
2013-02-13 09:40:00,32.8,25.1,29.83,West,260,0.0,0.0,73,0.00,,CLR,0.00,194.00,VWS V14.01,2013-02-13 14:40:00,
2013-02-13 09:45:00,33.3,25.9,29.83,West,261,1.0,2.0,74,0.00,,CLR,0.00,195.00,VWS V14.01,2013-02-13 14:45:00,
2013-02-13 09:50:00,33.6,26.2,29.82,West,261,0.0,2.0,74,0.00,,CLR,0.00,187.00,VWS V14.01,2013-02-13 14:50:00,
2013-02-13 09:55:00,33.6,26.5,29.82,North,7,1.0,3.0,75,0.00,,CLR,0.00,183.00,VWS V14.01,2013-02-13 14:55:00,
2013-02-13 10:00:00,33.6,26.5,29.82,NE,55,0.0,2.0,75,0.00,,CLR,0.00,165.00,VWS V14.01,2013-02-13 15:00:00,
2013-02-13 10:05:00,33.6,26.5,29.82,NE,55,0.0,2.0,75,0.00,,CLR,0.00,155.00,VWS V14.01,2013-02-13 15:05:00,
2013-02-13 10:10:00,33.6,26.5,29.82,NE,55,0.0,1.0,75,0.00,,CLR,0.00,153.00,VWS V14.01,2013-02-13 15:10:00,
2013-02-13 10:15:00,33.7,26.3,29.82,NE,55,0.0,0.0,74,0.00,,CLR,0.00,153.00,VWS V14.01,2013-02-13 15:15:00,
2013-02-13 10:20:00,33.9,26.2,29.82,ESE,106,0.0,2.0,73,0.00,,CLR,0.00,220.00,VWS V14.01,2013-02-13 15:20:00,
2013-02-13 10:25:00,34.3,25.9,29.82,ESE,110,2.0,2.0,71,0.00,,CLR,0.00,241.00,VWS V14.01,2013-02-13 15:25:00,
2013-02-13 10:30:00,34.6,25.5,29.82,ESE,113,0.0,2.0,69,0.00,,CLR,0.00,201.00,VWS V14.01,2013-02-13 15:30:00,
2013-02-13 10:35:00,34.9,24.7,29.82,NE,49,2.0,2.0,66,0.00,,CLR,0.00,227.00,VWS V14.01,2013-02-13 15:35:00,
2013-02-13 10:41:00,35.2,25.4,29.82,East,97,1.0,4.0,67,0.00,,CLR,0.00,424.00,VWS V14.01,2013-02-13 15:41:00,
2013-02-13 10:46:00,35.6,25.0,29.82,East,86,2.0,2.0,65,0.00,,CLR,0.00,290.00,VWS V14.01,2013-02-13 15:46:00,
2013-02-13 10:51:00,36.3,25.3,29.80,East,80,2.0,3.0,64,0.00,,CLR,0.00,382.00,VWS V14.01,2013-02-13 15:51:00,
2013-02-13 10:56:00,36.9,24.7,29.80,East,89,3.0,5.0,61,0.00,,CLR,0.00,487.00,VWS V14.01,2013-02-13 15:56:00,
2013-02-13 11:01:00,37.8,24.4,29.80,East,93,2.0,5.0,58,0.00,,CLR,0.00,477.00,VWS V14.01,2013-02-13 16:01:00,
2013-02-13 11:06:00,38.5,24.2,29.78,ENE,78,0.0,2.0,56,0.00,,CLR,0.00,560.00,VWS V14.01,2013-02-13 16:06:00,
2013-02-13 11:11:00,38.9,24.6,29.78,ENE,71,0.0,7.0,56,0.00,,CLR,0.00,315.00,VWS V14.01,2013-02-13 16:11:00,
2013-02-13 11:16:00,39.1,25.2,29.78,NE,49,0.0,5.0,57,0.00,,CLR,0.00,315.00,VWS V14.01,2013-02-13 16:16:00,
2013-02-13 11:21:00,39.1,25.6,29.78,ENE,62,2.0,5.0,58,0.00,,CLR,0.00,106.00,VWS V14.01,2013-02-13 16:21:00,
2013-02-13 11:26:00,38.9,25.4,29.78,ENE,62,2.0,2.0,58,0.00,,CLR,0.00,150.00,VWS V14.01,2013-02-13 16:26:00,
2013-02-13 11:32:00,38.8,26.1,29.78,ENE,62,2.0,2.0,60,0.00,,CLR,0.00,97.00,VWS V14.01,2013-02-13 16:32:00,
2013-02-13 11:37:00,38.8,26.9,29.78,ENE,62,0.0,0.0,62,0.00,,CLR,0.00,79.00,VWS V14.01,2013-02-13 16:37:00,
2013-02-13 11:42:00,38.6,25.9,29.78,ENE,62,0.0,2.0,60,0.00,,CLR,0.00,62.00,VWS V14.01,2013-02-13 16:42:00,
2013-02-13 11:47:00,38.5,26.6,29.78,ENE,62,0.0,0.0,62,0.00,,CLR,0.00,91.00,VWS V14.01,2013-02-13 16:47:00,
2013-02-13 11:52:00,38.5,26.6,29.77,ENE,62,0.0,0.0,62,0.00,,CLR,0.00,128.00,VWS V14.01,2013-02-13 16:52:00,
2013-02-13 11:57:00,38.8,26.9,29.77,ENE,62,1.0,2.0,62,0.00,,CLR,0.00,146.00,VWS V14.01,2013-02-13 16:57:00,
2013-02-13 12:02:00,38.9,26.2,29.77,ESE,110,0.0,2.0,60,0.00,,CLR,0.00,100.00,VWS V14.01,2013-02-13 17:02:00,
2013-02-13 12:07:00,39.1,26.8,29.78,ESE,112,0.0,0.0,61,0.00,,CLR,0.00,86.00,VWS V14.01,2013-02-13 17:07:00,
2013-02-13 12:12:00,39.1,26.4,29.78,SSW,198,0.0,0.0,60,0.00,,CLR,0.00,70.00,VWS V14.01,2013-02-13 17:12:00,
2013-02-13 12:17:00,39.2,26.5,29.78,SSW,198,0.0,0.0,60,0.00,,CLR,0.00,74.00,VWS V14.01,2013-02-13 17:17:00,
2013-02-13 12:22:00,39.2,26.1,29.77,SSW,196,0.0,0.0,59,0.00,,CLR,0.00,63.00,VWS V14.01,2013-02-13 17:22:00,
2013-02-13 12:27:00,39.3,26.2,29.77,SSW,196,0.0,0.0,59,0.00,,CLR,0.00,93.00,VWS V14.01,2013-02-13 17:27:00,
2013-02-13 12:32:00,39.3,26.6,29.77,SSW,202,0.0,0.0,60,0.00,,CLR,0.00,91.00,VWS V14.01,2013-02-13 17:32:00,
2013-02-13 12:38:00,39.3,26.6,29.76,SW,226,0.0,2.0,60,0.00,,CLR,0.00,95.00,VWS V14.01,2013-02-13 17:38:00,
2013-02-13 12:43:00,39.5,26.4,29.76,West,265,0.0,2.0,59,0.00,,CLR,0.00,91.00,VWS V14.01,2013-02-13 17:43:00,
2013-02-13 12:48:00,39.6,26.5,29.76,WNW,296,0.0,0.0,59,0.00,,CLR,0.00,121.00,VWS V14.01,2013-02-13 17:48:00,
2013-02-13 12:53:00,39.8,26.7,29.76,WNW,296,1.0,1.0,59,0.00,,CLR,0.00,165.00,VWS V14.01,2013-02-13 17:53:00,
2013-02-13 12:58:00,39.9,26.3,29.76,NW,311,0.0,1.0,58,0.00,,CLR,0.00,153.00,VWS V14.01,2013-02-13 17:58:00,
2013-02-13 13:03:00,40.1,26.5,29.76,NW,311,0.0,1.0,58,0.00,,CLR,0.00,99.00,VWS V14.01,2013-02-13 18:03:00,
2013-02-13 13:08:00,40.2,26.6,29.75,NE,38,1.0,3.0,58,0.00,,CLR,0.00,93.00,VWS V14.01,2013-02-13 18:08:00,
2013-02-13 13:13:00,40.1,27.4,29.75,NE,45,0.0,3.0,60,0.00,,CLR,0.00,109.00,VWS V14.01,2013-02-13 18:13:00,
2013-02-13 13:18:00,40.2,27.0,29.75,NE,45,0.0,0.0,59,0.00,,CLR,0.00,123.00,VWS V14.01,2013-02-13 18:18:00,
2013-02-13 13:24:00,40.2,27.0,29.73,NE,45,0.0,0.0,59,0.00,,CLR,0.00,164.00,VWS V14.01,2013-02-13 18:24:00,
2013-02-13 13:29:00,40.3,27.5,29.73,NE,47,0.0,0.0,60,0.00,,CLR,0.00,202.00,VWS V14.01,2013-02-13 18:29:00,
2013-02-13 13:34:00,40.5,28.5,29.73,NE,47,0.0,1.0,62,0.00,,CLR,0.00,130.00,VWS V14.01,2013-02-13 18:34:00,
2013-02-13 13:39:00,40.5,28.5,29.73,NE,47,0.0,2.0,62,0.00,,CLR,0.00,83.00,VWS V14.01,2013-02-13 18:39:00,
2013-02-13 13:44:00,40.3,27.9,29.73,NE,47,1.0,2.0,61,0.00,,CLR,0.00,69.00,VWS V14.01,2013-02-13 18:44:00,
2013-02-13 13:49:00,40.2,27.8,29.73,NE,47,0.0,1.0,61,0.00,,CLR,0.00,58.00,VWS V14.01,2013-02-13 18:49:00,
2013-02-13 13:54:00,40.1,27.8,29.72,NE,47,0.0,3.0,61,0.00,,CLR,0.00,69.00,VWS V14.01,2013-02-13 18:54:00,
2013-02-13 13:59:00,39.9,28.3,29.72,NE,47,0.0,2.0,63,0.00,,CLR,0.00,104.00,VWS V14.01,2013-02-13 18:59:00,
2013-02-13 14:04:00,39.9,28.3,29.72,NE,47,0.0,2.0,63,0.00,,CLR,0.00,109.00,VWS V14.01,2013-02-13 19:04:00,
2013-02-13 14:09:00,39.9,28.7,29.72,NE,47,1.0,5.0,64,0.00,,CLR,0.00,109.00,VWS V14.01,2013-02-13 19:09:00,
2013-02-13 14:15:00,39.9,29.1,29.72,ENE,66,1.0,5.0,65,0.00,,CLR,0.00,100.00,VWS V14.01,2013-02-13 19:15:00,
2013-02-13 14:20:00,40.1,29.7,29.72,ESE,114,0.0,1.0,66,0.00,,CLR,0.00,76.00,VWS V14.01,2013-02-13 19:20:00,
2013-02-13 14:25:00,39.9,31.3,29.72,ESE,113,0.0,2.0,71,0.00,,CLR,0.00,65.00,VWS V14.01,2013-02-13 19:25:00,
2013-02-13 14:30:00,39.6,31.7,29.72,ENE,64,1.0,2.0,73,0.00,,CLR,0.00,95.00,VWS V14.01,2013-02-13 19:30:00,
2013-02-13 14:35:00,39.3,31.7,29.70,ENE,76,1.0,3.0,74,0.00,,CLR,0.00,77.00,VWS V14.01,2013-02-13 19:35:00,
2013-02-13 14:40:00,38.9,31.7,29.70,East,88,1.0,3.0,75,0.00,,CLR,0.00,88.00,VWS V14.01,2013-02-13 19:40:00,
2013-02-13 14:45:00,38.6,32.0,29.70,ESE,102,1.0,3.0,77,0.00,,CLR,0.00,113.00,VWS V14.01,2013-02-13 19:45:00,
2013-02-13 14:50:00,38.3,32.0,29.70,East,95,0.0,5.0,78,0.01,,CLR,0.01,79.00,VWS V14.01,2013-02-13 19:50:00,
2013-02-13 14:55:00,38.1,32.2,29.70,East,85,0.0,5.0,79,0.01,,CLR,0.01,79.00,VWS V14.01,2013-02-13 19:55:00,
2013-02-13 15:00:00,37.9,32.3,29.70,East,85,0.0,0.0,80,0.01,,CLR,0.01,74.00,VWS V14.01,2013-02-13 20:00:00,
2013-02-13 15:05:00,37.8,32.5,29.70,East,85,0.0,0.0,81,0.01,,CLR,0.01,53.00,VWS V14.01,2013-02-13 20:05:00,
2013-02-13 15:10:00,37.5,32.2,29.70,East,85,0.0,1.0,81,0.01,,CLR,0.01,67.00,VWS V14.01,2013-02-13 20:10:00,
2013-02-13 15:15:00,37.3,32.3,29.70,East,85,0.0,0.0,82,0.01,,CLR,0.01,55.00,VWS V14.01,2013-02-13 20:15:00,
2013-02-13 15:21:00,37.2,32.5,29.70,East,85,0.0,1.0,83,0.01,,CLR,0.01,46.00,VWS V14.01,2013-02-13 20:21:00,
2013-02-13 15:26:00,36.9,32.2,29.70,East,90,0.0,0.0,83,0.01,,CLR,0.01,49.00,VWS V14.01,2013-02-13 20:26:00,
2013-02-13 15:31:00,36.8,32.4,29.70,East,90,0.0,0.0,84,0.01,,CLR,0.01,49.00,VWS V14.01,2013-02-13 20:31:00,
2013-02-13 15:36:00,36.8,32.4,29.69,East,90,0.0,0.0,84,0.02,,CLR,0.02,46.00,VWS V14.01,2013-02-13 20:36:00,
2013-02-13 15:41:00,36.6,32.5,29.69,East,90,0.0,0.0,85,0.02,,CLR,0.02,39.00,VWS V14.01,2013-02-13 20:41:00,
2013-02-13 15:46:00,36.5,32.7,29.69,East,90,0.0,0.0,86,0.02,,CLR,0.02,39.00,VWS V14.01,2013-02-13 20:46:00,
2013-02-13 15:51:00,36.5,32.7,29.69,East,80,3.0,3.0,86,0.03,,CLR,0.03,74.00,VWS V14.01,2013-02-13 20:51:00,
2013-02-13 15:56:00,36.0,32.2,29.69,East,90,0.0,0.0,86,0.02,,CLR,0.03,62.00,VWS V14.01,2013-02-13 20:56:00,
2013-02-13 16:01:00,35.9,32.4,29.69,East,90,0.0,1.0,87,0.02,,CLR,0.03,49.00,VWS V14.01,2013-02-13 21:01:00,
2013-02-13 16:06:00,35.6,32.4,29.68,East,90,0.0,0.0,88,0.02,,CLR,0.03,44.00,VWS V14.01,2013-02-13 21:06:00,
2013-02-13 16:11:00,35.5,32.3,29.68,East,90,0.0,1.0,88,0.03,,CLR,0.04,44.00,VWS V14.01,2013-02-13 21:11:00,
2013-02-13 16:16:00,35.3,32.1,29.68,East,90,0.0,1.0,88,0.03,,CLR,0.04,39.00,VWS V14.01,2013-02-13 21:16:00,
2013-02-13 16:22:00,35.2,32.3,29.68,East,90,0.0,1.0,89,0.03,,CLR,0.04,30.00,VWS V14.01,2013-02-13 21:22:00,
2013-02-13 16:27:00,35.0,32.1,29.68,East,90,1.0,2.0,89,0.03,,CLR,0.04,26.00,VWS V14.01,2013-02-13 21:27:00,
2013-02-13 16:32:00,34.9,32.3,29.68,East,90,0.0,2.0,90,0.04,,CLR,0.05,19.00,VWS V14.01,2013-02-13 21:32:00,
2013-02-13 16:37:00,34.9,32.3,29.68,East,90,0.0,0.0,90,0.03,,CLR,0.05,14.00,VWS V14.01,2013-02-13 21:37:00,
2013-02-13 16:42:00,34.9,32.5,29.68,East,90,0.0,0.0,91,0.03,,CLR,0.05,18.00,VWS V14.01,2013-02-13 21:42:00,
2013-02-13 16:47:00,34.9,32.5,29.68,East,90,0.0,0.0,91,0.03,,CLR,0.05,18.00,VWS V14.01,2013-02-13 21:47:00,
2013-02-13 16:52:00,34.9,32.5,29.69,East,90,1.0,1.0,91,0.03,,CLR,0.05,12.00,VWS V14.01,2013-02-13 21:52:00,
2013-02-13 16:57:00,34.8,32.5,29.69,East,90,0.0,0.0,91,0.02,,CLR,0.05,11.00,VWS V14.01,2013-02-13 21:57:00,
2013-02-13 17:02:00,34.6,32.5,29.69,East,90,0.0,0.0,92,0.02,,CLR,0.05,11.00,VWS V14.01,2013-02-13 22:02:00,
2013-02-13 17:07:00,34.6,32.5,29.69,East,90,0.0,0.0,92,0.02,,CLR,0.05,9.00,VWS V14.01,2013-02-13 22:07:00,
2013-02-13 17:13:00,34.5,32.4,29.69,East,90,0.0,0.0,92,0.02,,CLR,0.05,7.00,VWS V14.01,2013-02-13 22:13:00,
2013-02-13 17:18:00,34.3,32.2,29.69,East,90,0.0,0.0,92,0.02,,CLR,0.06,7.00,VWS V14.01,2013-02-13 22:18:00,
2013-02-13 17:23:00,34.2,32.1,29.70,East,90,0.0,0.0,92,0.02,,CLR,0.06,5.00,VWS V14.01,2013-02-13 22:23:00,
2013-02-13 17:28:00,34.0,31.9,29.70,East,90,0.0,0.0,92,0.02,,CLR,0.06,5.00,VWS V14.01,2013-02-13 22:28:00,
2013-02-13 17:33:00,33.9,31.8,29.70,East,90,0.0,0.0,92,0.02,,CLR,0.06,0.00,VWS V14.01,2013-02-13 22:33:00,
2013-02-13 17:38:00,33.7,31.6,29.70,East,90,0.0,0.0,92,0.01,,CLR,0.06,0.00,VWS V14.01,2013-02-13 22:38:00,
2013-02-13 17:43:00,33.4,31.3,29.70,East,90,0.0,0.0,92,0.01,,CLR,0.06,0.00,VWS V14.01,2013-02-13 22:43:00,
2013-02-13 17:48:00,33.3,31.2,29.70,East,90,0.0,0.0,92,0.01,,CLR,0.06,0.00,VWS V14.01,2013-02-13 22:48:00,
2013-02-13 17:53:00,33.0,30.9,29.71,East,90,0.0,0.0,92,0.01,,CLR,0.06,0.00,VWS V14.01,2013-02-13 22:53:00,
2013-02-13 17:58:00,32.8,30.7,29.71,East,90,0.0,0.0,92,0.01,,CLR,0.06,0.00,VWS V14.01,2013-02-13 22:58:00,
2013-02-13 18:03:00,32.5,30.7,29.71,East,90,0.0,0.0,93,0.01,,CLR,0.06,0.00,VWS V14.01,2013-02-13 23:03:00,
2013-02-13 18:09:00,32.4,30.6,29.72,East,90,0.0,0.0,93,0.01,,CLR,0.06,0.00,VWS V14.01,2013-02-13 23:09:00,
2013-02-13 18:14:00,32.2,30.4,29.72,East,90,0.0,0.0,93,0.01,,CLR,0.06,0.00,VWS V14.01,2013-02-13 23:14:00,
2013-02-13 18:19:00,32.1,30.3,29.72,East,90,0.0,0.0,93,0.01,,CLR,0.06,0.00,VWS V14.01,2013-02-13 23:19:00,
2013-02-13 18:24:00,32.1,30.3,29.72,East,90,0.0,0.0,93,0.01,,CLR,0.06,0.00,VWS V14.01,2013-02-13 23:24:00,
2013-02-13 18:29:00,32.1,30.3,29.72,East,90,0.0,0.0,93,0.01,,CLR,0.07,0.00,VWS V14.01,2013-02-13 23:29:00,
2013-02-13 18:34:00,31.9,30.4,29.72,East,90,0.0,0.0,94,0.01,,CLR,0.07,0.00,VWS V14.01,2013-02-13 23:34:00,
2013-02-13 18:39:00,31.9,30.4,29.73,East,90,0.0,0.0,94,0.01,,CLR,0.07,0.00,VWS V14.01,2013-02-13 23:39:00,
2013-02-13 18:44:00,31.9,30.4,29.73,East,90,0.0,0.0,94,0.01,,CLR,0.07,0.00,VWS V14.01,2013-02-13 23:44:00,
2013-02-13 18:49:00,31.9,30.4,29.74,East,90,0.0,0.0,94,0.01,,CLR,0.07,0.00,VWS V14.01,2013-02-13 23:49:00,
2013-02-13 18:55:00,31.8,30.3,29.74,East,90,0.0,0.0,94,0.01,,CLR,0.07,0.00,VWS V14.01,2013-02-13 23:55:00,
2013-02-13 19:00:00,31.8,30.3,29.74,East,90,0.0,0.0,94,0.01,,CLR,0.07,0.00,VWS V14.01,2013-02-14 00:00:00,
2013-02-13 19:05:00,31.8,30.3,29.74,East,90,0.0,0.0,94,0.01,,CLR,0.07,0.00,VWS V14.01,2013-02-14 00:05:00,
2013-02-13 19:10:00,31.8,30.5,29.74,East,90,0.0,0.0,95,0.01,,CLR,0.07,0.00,VWS V14.01,2013-02-14 00:10:00,
2013-02-13 19:15:00,31.8,30.5,29.74,East,90,0.0,0.0,95,0.01,,CLR,0.07,0.00,VWS V14.01,2013-02-14 00:15:00,
2013-02-13 19:20:00,31.8,30.5,29.75,East,90,0.0,0.0,95,0.01,,CLR,0.07,0.00,VWS V14.01,2013-02-14 00:20:00,
2013-02-13 19:25:00,31.8,30.5,29.75,East,90,0.0,0.0,95,0.01,,CLR,0.07,0.00,VWS V14.01,2013-02-14 00:25:00,
2013-02-13 19:30:00,31.7,30.4,29.75,East,90,0.0,0.0,95,0.01,,CLR,0.07,0.00,VWS V14.01,2013-02-14 00:30:00,
2013-02-13 19:36:00,31.7,30.4,29.75,East,90,0.0,0.0,95,0.00,,CLR,0.07,0.00,VWS V14.01,2013-02-14 00:36:00,
2013-02-13 19:41:00,31.7,30.4,29.75,East,90,0.0,0.0,95,0.00,,CLR,0.07,0.00,VWS V14.01,2013-02-14 00:41:00,
2013-02-13 19:46:00,31.7,30.4,29.75,East,90,0.0,0.0,95,0.00,,CLR,0.07,0.00,VWS V14.01,2013-02-14 00:46:00,
2013-02-13 19:51:00,31.7,30.4,29.76,East,90,0.0,0.0,95,0.00,,CLR,0.07,0.00,VWS V14.01,2013-02-14 00:51:00,
2013-02-13 19:56:00,31.7,30.7,29.76,East,90,0.0,0.0,96,0.00,,CLR,0.07,0.00,VWS V14.01,2013-02-14 00:56:00,
2013-02-13 20:01:00,31.7,30.7,29.76,East,90,0.0,0.0,96,0.00,,CLR,0.07,0.00,VWS V14.01,2013-02-14 01:01:00,
2013-02-13 20:06:00,31.7,30.7,29.77,East,90,0.0,0.0,96,0.00,,CLR,0.07,0.00,VWS V14.01,2013-02-14 01:06:00,
2013-02-13 20:11:00,31.8,30.8,29.77,East,90,0.0,0.0,96,0.00,,CLR,0.07,0.00,VWS V14.01,2013-02-14 01:11:00,
2013-02-13 20:16:00,31.8,30.8,29.77,East,90,0.0,0.0,96,0.00,,CLR,0.07,0.00,VWS V14.01,2013-02-14 01:16:00,
2013-02-13 20:22:00,31.8,30.8,29.77,East,90,0.0,0.0,96,0.00,,CLR,0.07,0.00,VWS V14.01,2013-02-14 01:22:00,
2013-02-13 20:27:00,31.8,30.8,29.77,East,90,0.0,0.0,96,0.00,,CLR,0.07,0.00,VWS V14.01,2013-02-14 01:27:00,
2013-02-13 20:32:00,31.8,30.8,29.77,East,90,0.0,0.0,96,0.00,,CLR,0.07,0.00,VWS V14.01,2013-02-14 01:32:00,
2013-02-13 20:37:00,31.8,30.8,29.78,East,90,0.0,0.0,96,0.00,,CLR,0.07,0.00,VWS V14.01,2013-02-14 01:37:00,
2013-02-13 20:42:00,31.8,30.8,29.78,East,90,0.0,0.0,96,0.00,,CLR,0.07,0.00,VWS V14.01,2013-02-14 01:42:00,
2013-02-13 20:47:00,31.8,30.8,29.78,SSW,210,0.0,0.0,96,0.00,,CLR,0.07,0.00,VWS V14.01,2013-02-14 01:47:00,
2013-02-13 20:52:00,31.8,30.8,29.78,SSW,210,0.0,0.0,96,0.00,,CLR,0.07,0.00,VWS V14.01,2013-02-14 01:52:00,
2013-02-13 20:57:00,31.8,30.8,29.78,SSW,210,0.0,0.0,96,0.00,,CLR,0.07,0.00,VWS V14.01,2013-02-14 01:57:00,
2013-02-13 21:02:00,31.8,30.8,29.78,SSW,210,0.0,0.0,96,0.00,,CLR,0.07,0.00,VWS V14.01,2013-02-14 02:02:00,
2013-02-13 21:07:00,31.8,30.8,29.77,SSW,210,0.0,0.0,96,0.00,,CLR,0.07,0.00,VWS V14.01,2013-02-14 02:07:00,
2013-02-13 21:12:00,31.9,30.9,29.77,SSW,210,0.0,0.0,96,0.00,,CLR,0.07,0.00,VWS V14.01,2013-02-14 02:12:00,
2013-02-13 21:17:00,31.9,30.9,29.77,SSW,210,0.0,0.0,96,0.00,,CLR,0.07,0.00,VWS V14.01,2013-02-14 02:17:00,
2013-02-13 21:23:00,31.9,30.9,29.77,SSW,210,0.0,0.0,96,0.00,,CLR,0.07,0.00,VWS V14.01,2013-02-14 02:23:00,
2013-02-13 21:28:00,31.9,30.9,29.77,SSW,210,0.0,0.0,96,0.00,,CLR,0.07,0.00,VWS V14.01,2013-02-14 02:28:00,
2013-02-13 21:33:00,31.8,30.8,29.77,SSW,210,0.0,0.0,96,0.00,,CLR,0.07,0.00,VWS V14.01,2013-02-14 02:33:00,
2013-02-13 21:38:00,31.8,31.0,29.79,SSW,210,0.0,0.0,97,0.00,,CLR,0.07,0.00,VWS V14.01,2013-02-14 02:38:00,
2013-02-13 21:43:00,31.8,31.0,29.79,SSW,210,0.0,0.0,97,0.00,,CLR,0.07,0.00,VWS V14.01,2013-02-14 02:43:00,
2013-02-13 21:48:00,31.9,31.1,29.79,SSW,210,0.0,0.0,97,0.00,,CLR,0.07,0.00,VWS V14.01,2013-02-14 02:48:00,
2013-02-13 21:53:00,31.9,31.1,29.79,SSW,210,0.0,0.0,97,0.00,,CLR,0.07,0.00,VWS V14.01,2013-02-14 02:53:00,
2013-02-13 21:58:00,31.9,31.1,29.79,SSW,210,0.0,0.0,97,0.00,,CLR,0.07,0.00,VWS V14.01,2013-02-14 02:58:00,
2013-02-13 22:03:00,31.9,31.1,29.79,SSW,210,0.0,0.0,97,0.00,,CLR,0.07,0.00,VWS V14.01,2013-02-14 03:03:00,
2013-02-13 22:08:00,31.9,31.1,29.80,SSW,210,0.0,0.0,97,0.00,,CLR,0.07,0.00,VWS V14.01,2013-02-14 03:08:00,
2013-02-13 22:13:00,31.9,31.1,29.80,SSW,210,0.0,0.0,97,0.00,,CLR,0.07,0.00,VWS V14.01,2013-02-14 03:13:00,
2013-02-13 22:18:00,31.9,31.1,29.80,SSW,210,1.0,2.0,97,0.00,,CLR,0.07,0.00,VWS V14.01,2013-02-14 03:18:00,
2013-02-13 22:24:00,31.9,31.1,29.80,SSW,210,0.0,2.0,97,0.00,,CLR,0.07,0.00,VWS V14.01,2013-02-14 03:24:00,
2013-02-13 22:29:00,32.1,31.4,29.80,SSW,210,0.0,0.0,97,0.00,,CLR,0.07,0.00,VWS V14.01,2013-02-14 03:29:00,
2013-02-13 22:34:00,32.1,31.4,29.80,SSE,148,2.0,2.0,97,0.00,,CLR,0.07,0.00,VWS V14.01,2013-02-14 03:34:00,
2013-02-13 22:39:00,31.9,31.1,29.80,SSE,167,0.0,0.0,97,0.00,,CLR,0.07,0.00,VWS V14.01,2013-02-14 03:39:00,
2013-02-13 22:44:00,31.9,31.1,29.80,SSE,167,0.0,0.0,97,0.00,,CLR,0.07,0.00,VWS V14.01,2013-02-14 03:44:00,
2013-02-13 22:49:00,31.8,31.0,29.80,SSE,167,0.0,0.0,97,0.00,,CLR,0.07,0.00,VWS V14.01,2013-02-14 03:49:00,
2013-02-13 22:54:00,31.9,31.1,29.81,South,171,0.0,2.0,97,0.00,,CLR,0.07,0.00,VWS V14.01,2013-02-14 03:54:00,
2013-02-13 22:55:00,32.2,31.7,29.83,SSW,205,0.0,0.0,98,0.01,,CLR,0.08,0.00,VWS V14.01,2013-02-14 03:55:00,
2013-02-13 22:56:00,32.2,31.7,29.83,SSW,205,0.0,0.0,98,0.01,,CLR,0.08,0.00,VWS V14.01,2013-02-14 03:56:00,
2013-02-13 22:57:00,32.2,31.7,29.83,SSW,205,0.0,0.0,98,0.01,,CLR,0.08,0.00,VWS V14.01,2013-02-14 03:57:00,
2013-02-13 22:58:00,32.2,31.7,29.83,SSW,205,0.0,0.0,98,0.01,,CLR,0.08,0.00,VWS V14.01,2013-02-14 03:58:00,
2013-02-13 22:59:00,31.9,31.1,29.81,SSW,202,3.0,3.0,97,0.00,,CLR,0.07,0.00,VWS V14.01,2013-02-14 03:59:00,
2013-02-13 23:00:00,32.1,31.6,29.83,SSW,205,0.0,0.0,98,0.01,,CLR,0.08,0.00,VWS V14.01,2013-02-14 04:00:00,
2013-02-13 23:01:00,32.1,31.6,29.83,SSW,205,0.0,0.0,98,0.01,,CLR,0.00,0.00,VWS V14.01,2013-02-14 04:01:00,
2013-02-13 23:02:00,32.1,31.6,29.83,SSW,205,0.0,0.0,98,0.01,,CLR,0.00,0.00,VWS V14.01,2013-02-14 04:02:00,
2013-02-13 23:03:00,32.1,31.6,29.83,SSW,205,0.0,0.0,98,0.01,,CLR,0.00,0.00,VWS V14.01,2013-02-14 04:03:00,
2013-02-13 23:04:00,31.9,31.1,29.81,SW,216,0.0,3.0,97,0.00,,CLR,0.07,0.00,VWS V14.01,2013-02-14 04:04:00,
2013-02-13 23:05:00,32.1,31.6,29.83,SSW,205,0.0,0.0,98,0.01,,CLR,0.00,0.00,VWS V14.01,2013-02-14 04:05:00,
2013-02-13 23:06:00,32.1,31.6,29.83,SSW,205,0.0,0.0,98,0.01,,CLR,0.00,0.00,VWS V14.01,2013-02-14 04:06:00,
2013-02-13 23:07:00,32.1,31.6,29.83,SSW,205,0.0,0.0,98,0.01,,CLR,0.00,0.00,VWS V14.01,2013-02-14 04:07:00,
2013-02-13 23:08:00,32.1,31.6,29.83,SSW,205,0.0,0.0,98,0.01,,CLR,0.00,0.00,VWS V14.01,2013-02-14 04:08:00,
2013-02-13 23:09:00,32.1,31.6,29.81,South,179,0.0,0.0,98,0.00,,CLR,0.07,0.00,VWS V14.01,2013-02-14 04:09:00,
2013-02-13 23:10:00,32.1,31.6,29.83,SSW,205,0.0,0.0,98,0.01,,CLR,0.00,0.00,VWS V14.01,2013-02-14 04:10:00,
2013-02-13 23:11:00,32.1,31.6,29.83,SSW,205,0.0,0.0,98,0.01,,CLR,0.00,0.00,VWS V14.01,2013-02-14 04:11:00,
2013-02-13 23:12:00,31.9,31.4,29.83,SSW,205,0.0,0.0,98,0.01,,CLR,0.00,0.00,VWS V14.01,2013-02-14 04:12:00,
2013-02-13 23:13:00,31.9,31.4,29.83,SSW,205,0.0,0.0,98,0.01,,CLR,0.00,0.00,VWS V14.01,2013-02-14 04:13:00,
2013-02-13 23:14:00,31.9,31.4,29.84,SSW,205,0.0,0.0,98,0.01,,CLR,0.00,0.00,VWS V14.01,2013-02-14 04:14:00,
2013-02-13 23:15:00,32.1,31.6,29.81,South,179,0.0,0.0,98,0.00,,CLR,0.07,0.00,VWS V14.01,2013-02-14 04:15:00,
2013-02-13 23:16:00,31.9,31.1,29.84,SSW,205,0.0,0.0,97,0.01,,CLR,0.00,0.00,VWS V14.01,2013-02-14 04:16:00,
2013-02-13 23:17:00,31.9,31.1,29.84,SSW,205,0.0,0.0,97,0.01,,CLR,0.00,0.00,VWS V14.01,2013-02-14 04:17:00,
2013-02-13 23:19:00,31.8,31.0,29.84,SSW,205,0.0,0.0,97,0.01,,CLR,0.00,0.00,VWS V14.01,2013-02-14 04:19:00,
2013-02-13 23:20:00,32.1,31.6,29.82,South,179,0.0,0.0,98,0.00,,CLR,0.07,0.00,VWS V14.01,2013-02-14 04:20:00,
2013-02-13 23:25:00,32.1,31.4,29.82,South,179,0.0,0.0,97,0.00,,CLR,0.07,0.00,VWS V14.01,2013-02-14 04:25:00,
2013-02-13 23:30:00,31.9,31.1,29.82,South,179,0.0,0.0,97,0.00,,CLR,0.07,0.00,VWS V14.01,2013-02-14 04:30:00,
2013-02-13 23:35:00,32.1,31.6,29.82,South,179,0.0,0.0,98,0.00,,CLR,0.07,0.00,VWS V14.01,2013-02-14 04:35:00,
2013-02-13 23:40:00,32.1,31.6,29.82,SSW,205,3.0,5.0,98,0.00,,CLR,0.07,0.00,VWS V14.01,2013-02-14 04:40:00,
2013-02-13 23:45:00,32.1,31.6,29.82,SSW,205,0.0,5.0,98,0.00,,CLR,0.07,0.00,VWS V14.01,2013-02-14 04:45:00,
2013-02-13 23:50:00,32.1,31.6,29.83,SSW,205,0.0,0.0,98,0.00,,CLR,0.07,0.00,VWS V14.01,2013-02-14 04:50:00,
2013-02-13 23:55:00,32.2,31.7,29.83,SSW,205,0.0,2.0,98,0.00,,CLR,0.07,0.00,VWS V14.01,2013-02-14 04:55:00,